FW5145 Weather Reports


Display with metric or nautical units.
time (UTC)temp
F
wind
direction
speed
MPH
gust
MPH
rain 1hr
in
rain 24hr
in
rain mn
in
humidity
%
barometer
mb
20260902205032 63 242 3.0 10.0 0.00 0.03 0.03 100 1018.2
20260902204554 63 253 2.0 12.0 0.00 0.03 0.03 100 1018.2
20260902204033 63 257 2.0 12.0 0.00 0.03 0.03 100 1018.2
20260902203535 63 244 3.0 12.0 0.00 0.03 0.03 100 1018.3
20260902203057 63 247 2.0 7.0 0.00 0.03 0.03 100 1018.5
20260902202532 63 197 2.0 10.0 0.00 0.03 0.03 100 1018.5
20260902202032 63 0 1.0 10.0 0.00 0.03 0.03 100 1018.5
20260902201554 63 245 2.0 10.0 0.00 0.03 0.03 100 1018.3
20260902201033 63 261 2.0 10.0 0.00 0.03 0.03 100 1018.2
20260902200533 63 238 2.0 9.0 0.00 0.03 0.03 100 1018.2
20260902200045 63 153 2.0 9.0 0.00 0.03 0.03 100 1018.2
20260902195533 63 254 2.0 9.0 0.00 0.03 0.03 100 1018.3
20260902195033 63 189 2.0 10.0 0.00 0.03 0.03 100 1018.3
20260902194543 63 179 3.0 10.0 0.00 0.03 0.03 100 1018.3
20260902194032 63 123 1.0 8.0 0.00 0.03 0.03 100 1018.3
20260902193533 63 194 1.0 8.0 0.00 0.03 0.03 100 1018.2
20260902193055 63 0 2.0 12.0 0.00 0.03 0.03 100 1018.1
20260902192532 63 284 2.0 13.0 0.00 0.03 0.03 100 1018.0
20260902192032 63 240 2.0 13.0 0.00 0.03 0.03 100 1018.0
20260902191553 63 224 2.0 8.0 0.00 0.03 0.03 100 1018.0
20260902191035 63 202 2.0 8.0 0.00 0.03 0.03 100 1018.1
20260902190532 63 0 0.0 6.0 0.00 0.03 0.03 100 1018.1
20260902190049 63 270 1.0 6.0 0.00 0.03 0.03 100 1018.2
20260902185532 63 200 1.0 7.0 0.00 0.03 0.03 100 1018.2
20260902185032 63 214 1.0 7.0 0.00 0.03 0.03 100 1018.3
20260902184623 63 246 0.0 7.0 0.00 0.02 0.02 100 1018.4
20260902184032 63 0 1.0 7.0 0.00 0.02 0.02 100 1018.4
20260902183533 63 182 2.0 7.0 0.00 0.02 0.02 100 1018.4
20260902183054 63 227 1.0 7.0 0.00 0.02 0.02 100 1018.4
20260902182532 63 201 2.0 7.0 0.00 0.02 0.02 100 1018.3
20260902182032 62 204 1.0 12.0 0.00 0.02 0.02 100 1018.3
20260902181557 62 225 1.0 12.0 0.00 0.02 0.02 100 1018.4
20260902181034 62 0 1.0 8.0 0.00 0.02 0.02 100 1018.3
20260902180533 62 240 1.0 8.0 0.00 0.02 0.02 100 1018.5
20260902180101 62 200 1.0 8.0 0.00 0.02 0.02 100 1018.5
20260902175532 62 257 2.0 8.0 0.00 0.02 0.02 100 1018.5
20260902175033 62 237 1.0 8.0 0.00 0.02 0.02 100 1018.7
20260902174548 62 279 1.0 6.0 0.00 0.02 0.02 100 1018.6
20260902174032 62 0 1.0 6.0 0.00 0.01 0.01 100 1018.7
20260902173532 62 190 0.0 6.0 0.00 0.01 0.01 100 1018.7
20260902173043 62 182 0.0 6.0 0.00 0.01 0.01 100 1018.6
20260902172531 62 212 0.0 7.0 0.00 0.01 0.01 100 1018.6
20260902172032 62 215 1.0 7.0 0.00 0.01 0.01 100 1018.6
20260902171603 62 270 1.0 7.0 0.00 0.01 0.01 100 1018.7
20260902171032 62 153 1.0 8.0 0.00 0.01 0.01 100 1018.7
20260902170534 62 243 2.0 8.0 0.00 0.01 0.01 100 1018.8
20260902170051 63 255 1.0 9.0 0.00 0.01 0.01 100 1018.9
20260902165533 63 250 2.0 10.0 0.00 0.01 0.01 100 1019.1
20260902165032 63 232 3.0 10.0 0.00 0.01 0.01 100 1019.1
20260902164547 63 234 3.0 9.0 0.00 0.01 0.01 100 1019.2
20260902164032 64 195 3.0 11.0 0.00 0.01 0.01 100 1019.3
20260902163533 64 167 3.0 12.0 0.00 0.01 0.01 100 1019.3
20260902163054 64 217 2.0 12.0 0.00 0.01 0.01 100 1019.1
20260902162532 64 227 3.0 11.0 0.00 0.01 0.01 100 1019.2
20260902162032 64 257 2.0 8.0 0.00 0.01 0.01 100 1019.4
20260902161559 64 165 3.0 8.0 0.00 0.01 0.01 100 1019.4
20260902161034 64 266 2.0 8.0 0.00 0.01 0.01 100 1019.3
20260902160533 64 240 2.0 9.0 0.00 0.01 0.01 100 1019.2
20260902160049 64 0 2.0 9.0 0.00 0.01 0.01 100 1019.3
20260902155532 64 180 1.0 8.0 0.00 0.01 0.01 100 1019.3
20260902155033 65 168 3.0 8.0 0.00 0.01 0.01 100 1019.4
20260902154543 65 197 2.0 8.0 0.00 0.01 0.01 100 1019.6
20260902154032 65 166 2.0 11.0 0.00 0.01 0.01 100 1019.6
20260902153532 66 228 3.0 12.0 0.00 0.01 0.01 100 1019.5
20260902153052 66 243 3.0 12.0 0.00 0.01 0.01 100 1019.5
20260902152532 67 137 4.0 12.0 0.00 0.01 0.01 100 1019.5
20260902152033 67 152 3.0 10.0 0.00 0.01 0.01 100 1019.6
20260902151548 67 135 2.0 10.0 0.00 0.01 0.01 100 1019.6
20260902151035 67 243 4.0 11.0 0.00 0.00 0.00 100 1019.4
20260902150532 68 200 3.0 12.0 0.00 0.00 0.00 100 1019.6
20260902150044 68 304 3.0 12.0 0.00 0.00 0.00 100 1019.5
20260902145532 68 186 2.0 11.0 0.00 0.00 0.00 100 1019.6
20260902145033 68 202 3.0 11.0 0.00 0.00 0.00 100 1019.6
20260902144555 68 169 3.0 14.0 0.00 0.00 0.00 100 1019.7
20260902144032 69 200 4.0 14.0 0.00 0.00 0.00 100 1019.7
20260902143533 69 188 2.0 15.0 0.00 0.00 0.00 100 1019.8
20260902143052 69 192 4.0 16.0 0.00 0.00 0.00 100 1019.8
20260902142532 69 246 4.0 16.0 0.00 0.00 0.00 100 1019.7
20260902142032 69 159 3.0 13.0 0.00 0.00 0.00 100 1019.7
20260902141546 68 217 4.0 11.0 0.00 0.00 0.00 100 1019.8
20260902141035 68 219 3.0 11.0 0.00 0.00 0.00 100 1019.9
20260902140532 68 202 3.0 11.0 0.00 0.00 0.00 100 1019.9
20260902140045 68 155 3.0 13.0 0.00 0.00 0.00 100 1020.0
20260902135532 67 216 3.0 13.0 0.00 0.00 0.00 100 1020.1
20260902135032 67 265 3.0 13.0 0.00 0.00 0.00 100 1020.1
20260902134546 67 252 2.0 11.0 0.00 0.00 0.00 100 1020.1
20260902134033 67 227 4.0 12.0 0.00 0.00 0.00 100 1020.1
20260902133532 66 251 3.0 12.0 0.00 0.00 0.00 100 1020.0
20260902133044 66 187 3.0 12.0 0.00 0.00 0.00 100 1020.2
20260902132535 66 230 2.0 12.0 0.00 0.00 0.00 100 1020.3
20260902132031 66 70 3.0 12.0 0.00 0.00 0.00 100 1020.3
20260902131553 66 240 3.0 10.0 0.00 0.00 0.00 100 1020.2
20260902131032 66 0 1.0 9.0 0.00 0.00 0.00 100 1020.3
20260902130532 66 202 3.0 9.0 0.00 0.00 0.00 100 1020.2
20260902130052 66 240 2.0 11.0 0.00 0.00 0.00 100 1020.3
20260902125534 65 170 3.0 11.0 0.00 0.00 0.00 100 1020.3
20260902125034 65 227 4.0 10.0 0.00 0.00 0.00 100 1020.3
20260902124545 65 257 1.0 10.0 0.00 0.00 0.00 100 1020.5
20260902124032 65 352 2.0 10.0 0.00 0.00 0.00 100 1020.5
20260902123538 65 207 2.0 8.0 0.00 0.00 0.00 100 1020.6
20260902123044 65 261 1.0 10.0 0.00 0.00 0.00 100 1020.6
20260902122532 65 234 1.0 10.0 0.00 0.00 0.00 100 1020.4
20260902122034 65 263 2.0 8.0 0.00 0.00 0.00 100 1020.5
20260902121607 64 276 2.0 8.0 0.00 0.00 0.00 100 1020.5
20260902121032 64 174 1.0 8.0 0.00 0.00 0.00 100 1020.5
20260902120535 64 227 1.0 8.0 0.00 0.00 0.00 100 1020.6
20260902120101 64 213 0.0 8.0 0.00 0.00 0.00 100 1020.7
20260902115532 64 253 1.0 8.0 0.00 0.00 0.00 100 1020.7
20260902115032 64 240 2.0 8.0 0.00 0.00 0.00 100 1020.9
20260902114612 64 265 1.0 7.0 0.00 0.00 0.00 100 1020.7
20260902114032 65 350 1.0 6.0 0.00 0.00 0.00 100 1020.6
20260902113531 65 0 1.0 8.0 0.00 0.00 0.00 100 1020.6
20260902113058 65 159 1.0 8.0 0.00 0.00 0.00 100 1020.7
20260902112536 65 236 2.0 8.0 0.00 0.00 0.00 100 1020.7
20260902112034 65 322 0.0 3.0 0.00 0.00 0.00 100 1020.8
20260902111559 65 0 0.0 3.0 0.00 0.00 0.00 100 1020.8
20260902111034 64 0 0.0 3.0 0.00 0.00 0.00 100 1020.8
20260902110532 64 0 0.0 6.0 0.00 0.00 0.00 100 1021.0
20260902110059 63 271 0.0 6.0 0.00 0.00 0.00 100 1020.9
20260902105533 63 0 0.0 5.0 0.00 0.00 0.00 100 1021.1
20260902105032 63 204 1.0 5.0 0.00 0.00 0.00 100 1021.2
20260902104551 63 0 0.0 4.0 0.00 0.00 0.00 100 1021.2
20260902104035 63 0 0.0 4.0 0.00 0.00 0.00 100 1021.2
20260902103532 63 0 0.0 4.0 0.00 0.00 0.00 100 1021.3
20260902103113 63 0 0.0 2.0 0.00 0.00 0.00 100 1021.1
20260902102532 63 0 0.0 6.0 0.00 0.00 0.00 100 1021.1
20260902102033 63 0 0.0 6.0 0.00 0.00 0.00 100 1021.2
20260902101556 63 0 0.0 8.0 0.00 0.00 0.00 100 1021.2
20260902101034 64 219 0.0 8.0 0.00 0.00 0.00 100 1021.3
20260902100532 64 224 3.0 8.0 0.00 0.00 0.00 100 1021.3
20260902100053 64 0 0.0 4.0 0.00 0.00 0.00 100 1021.3
20260902095533 64 0 0.0 8.0 0.00 0.00 0.00 100 1021.2
20260902095035 64 0 1.0 8.0 0.00 0.00 0.00 100 1021.4
20260902094554 65 236 2.0 6.0 0.00 0.00 0.00 100 1021.3
20260902094032 64 221 2.0 6.0 0.00 0.00 0.00 100 1021.3
20260902093532 64 222 1.0 5.0 0.00 0.00 0.00 100 1021.0
20260902093048 64 254 1.0 5.0 0.00 0.00 0.00 100 1021.3
20260902092532 64 0 0.0 4.0 0.00 0.00 0.00 100 1021.3
20260902092033 64 246 1.0 7.0 0.00 0.00 0.00 100 1021.4
20260902091557 64 171 2.0 8.0 0.00 0.00 0.00 100 1021.4
20260902091032 64 0 3.0 8.0 0.00 0.00 0.00 100 1021.4
20260902090532 64 0 1.0 7.0 0.00 0.00 0.00 100 1021.2
20260902090053 64 181 1.0 8.0 0.00 0.00 0.00 100 1021.2
20260902085537 64 255 0.0 8.0 0.00 0.00 0.00 100 1021.2
20260902085032 64 236 2.0 9.0 0.00 0.00 0.00 100 1021.3
20260902084554 64 0 2.0 9.0 0.00 0.00 0.00 100 1021.0
20260902084033 64 0 0.0 5.0 0.00 0.00 0.00 100 1021.1
20260902083533 64 219 1.0 5.0 0.00 0.00 0.00 100 1021.0
20260902083048 64 227 1.0 6.0 0.00 0.00 0.00 100 1021.0
20260902082534 63 252 2.0 9.0 0.00 0.00 0.00 100 1021.1
20260902082032 63 0 1.0 9.0 0.00 0.00 0.00 100 1021.0
20260902081544 63 235 2.0 8.0 0.00 0.00 0.00 100 1021.0
20260902081033 63 269 0.0 6.0 0.00 0.00 0.00 100 1021.0
20260902080532 62 194 0.0 5.0 0.00 0.00 0.00 100 1021.0
20260902080044 62 217 0.0 5.0 0.00 0.00 0.00 100 1020.9
20260902075531 62 222 1.0 5.0 0.00 0.00 0.00 100 1020.9
20260902075035 62 227 1.0 8.0 0.00 0.00 0.00 100 1020.8
20260902074555 62 272 0.0 8.0 0.00 0.00 0.00 100 1020.8
20260902074032 61 240 1.0 5.0 0.00 0.00 0.00 100 1020.8
20260902073532 61 219 0.0 3.0 0.00 0.00 0.00 100 1020.7
20260902073047 61 0 0.0 3.0 0.00 0.00 0.00 100 1020.7
20260902072532 61 0 0.0 2.0 0.00 0.00 0.00 100 1020.8
20260902072034 60 0 0.0 2.0 0.00 0.00 0.00 100 1020.7
20260902071556 60 0 0.0 3.0 0.00 0.00 0.00 100 1020.8
20260902071032 60 0 0.0 3.0 0.00 0.00 0.00 100 1020.8
20260902070532 60 0 0.0 2.0 0.00 0.00 0.00 100 1020.7
20260902070045 60 243 0.0 2.0 0.00 0.00 0.00 100 1020.7
20260902065531 60 209 0.0 2.0 0.00 0.00 0.00 100 1020.6
20260902065036 59 0 0.0 2.0 0.00 0.00 0.00 100 1020.5
20260902064551 59 0 0.0 1.0 0.00 0.00 0.00 100 1020.4
20260902064033 59 0 0.0 1.0 0.00 0.00 0.00 100 1020.4
20260902063534 59 0 0.0 1.0 0.00 0.00 0.00 100 1020.5
20260902063056 59 0 0.0 1.0 0.00 0.00 0.00 100 1020.5
20260902062533 58 0 0.0 1.0 0.00 0.00 0.00 100 1020.5
20260902062031 58 0 0.0 3.0 0.00 0.00 0.00 100 1020.6
20260902061548 58 0 0.0 3.0 0.00 0.00 0.00 100 1020.5
20260902061037 58 0 0.0 3.0 0.00 0.00 0.00 100 1020.4
20260902060532 58 0 0.0 3.0 0.00 0.00 0.00 100 1020.4
20260902060059 58 0 0.0 2.0 0.00 0.00 0.00 100 1020.3
20260902055533 58 0 0.0 0.0 0.00 0.00 0.00 100 1020.4
20260902055032 58 0 0.0 0.0 0.00 0.00 0.00 100 1020.3
20260902054547 58 0 0.0 0.0 0.00 0.00 0.00 100 1020.2
20260902054039 57 0 0.0 0.0 0.00 0.00 0.00 100 1020.2
20260902053534 57 0 0.0 0.0 0.00 0.00 0.00 100 1020.2
20260902053058 57 0 0.0 0.0 0.00 0.00 0.00 100 1020.1
20260902052532 57 0 0.0 0.0 0.00 0.00 0.00 100 1020.2
20260902052034 57 0 0.0 0.0 0.00 0.00 0.00 100 1020.2
20260902051556 57 0 0.0 0.0 0.00 0.00 0.00 100 1020.3
20260902051034 57 0 0.0 0.0 0.00 0.00 0.00 100 1020.3
20260902050535 57 0 0.0 0.0 0.00 0.00 0.00 100 1020.3
20260902050050 57 0 0.0 0.0 0.00 0.00 0.00 100 1020.2
20260902045531 57 0 0.0 0.0 0.00 0.00 0.00 100 1020.1
20260902045032 57 0 0.0 0.0 0.00 0.00 0.00 100 1020.2
20260902044547 57 0 0.0 0.0 0.00 0.00 0.00 100 1020.3
20260902044032 58 0 0.0 0.0 0.00 0.00 0.00 100 1020.3
20260902043531 58 0 0.0 0.0 0.00 0.00 0.00 100 1020.4
20260902043058 58 0 0.0 0.0 0.00 0.00 0.00 100 1020.4
20260902042531 58 0 0.0 0.0 0.00 0.00 0.00 100 1020.4
20260902042032 58 0 0.0 0.0 0.00 0.00 0.00 100 1020.4
20260902041550 58 0 0.0 0.0 0.00 0.00 0.00 100 1020.3
20260902041031 58 0 0.0 0.0 0.00 0.00 0.00 100 1020.4
20260902040534 58 0 0.0 0.0 0.00 0.00 0.00 100 1020.3
20260902040051 58 0 0.0 0.0 0.00 0.00 0.00 100 1020.3
20260902035531 58 0 0.0 0.0 0.00 0.00 0.00 100 1020.3
20260902035034 58 0 0.0 0.0 0.00 0.00 0.00 100 1020.3
20260902034559 58 0 0.0 0.0 0.00 0.00 0.00 100 1020.3
20260902034031 58 0 0.0 1.0 0.00 0.00 0.00 100 1020.3
20260902033531 59 0 0.0 1.0 0.00 0.00 0.00 100 1020.4
20260902033048 59 0 0.0 1.0 0.00 0.00 0.00 100 1020.3
20260902032532 59 0 0.0 0.0 0.00 0.00 0.00 100 1020.4
20260902032034 59 0 0.0 0.0 0.00 0.00 0.00 100 1020.4
20260902031545 59 0 0.0 0.0 0.00 0.00 0.00 100 1020.5
20260902031031 59 0 0.0 0.0 0.00 0.00 0.00 100 1020.6
20260902030534 59 0 0.0 0.0 0.00 0.00 0.00 100 1020.5
20260902030049 59 0 0.0 1.0 0.00 0.00 0.00 100 1020.5
20260902025532 59 0 0.0 1.0 0.00 0.00 0.00 100 1020.5
20260902025034 59 0 0.0 1.0 0.00 0.00 0.00 100 1020.5
20260902024546 59 0 0.0 1.0 0.00 0.00 0.00 100 1020.5
20260902024034 59 0 0.0 2.0 0.00 0.00 0.00 100 1020.5
20260902023532 59 0 0.0 2.0 0.00 0.00 0.00 100 1020.5
20260902023053 59 0 0.0 2.0 0.00 0.00 0.00 100 1020.6
20260902022535 59 0 0.0 2.0 0.00 0.00 0.00 100 1020.6
20260902022032 59 0 0.0 3.0 0.00 0.00 0.00 100 1020.5
20260902021542 59 0 0.0 3.0 0.00 0.00 0.00 100 1020.5
20260902021035 59 0 0.0 3.0 0.00 0.00 0.00 100 1020.6
20260902020532 59 247 0.0 0.0 0.00 0.00 0.00 100 1020.6
20260902020058 59 0 0.0 0.0 0.00 0.00 0.00 100 1020.7
20260902015531 59 0 0.0 0.0 0.00 0.00 0.00 100 1020.7
20260902015032 59 0 0.0 0.0 0.00 0.00 0.00 100 1020.7
20260902014546 59 0 0.0 0.0 0.00 0.00 0.00 100 1020.7
20260902014033 59 0 0.0 0.0 0.00 0.00 0.00 100 1020.7
20260902013534 59 0 0.0 0.0 0.00 0.00 0.00 100 1020.8
20260902013044 59 0 0.0 1.0 0.00 0.00 0.00 100 1020.8
20260902012531 59 0 0.0 1.0 0.00 0.00 0.00 100 1020.7
20260902012032 59 0 0.0 1.0 0.00 0.00 0.00 100 1020.8
20260902011544 59 0 0.0 2.0 0.00 0.00 0.00 100 1020.7
20260902011032 59 0 0.0 3.0 0.00 0.00 0.00 100 1020.8
20260902010531 59 242 0.0 3.0 0.00 0.00 0.00 100 1020.9
20260902010057 59 0 0.0 3.0 0.00 0.00 0.00 100 1020.8
20260902005532 59 0 0.0 0.0 0.00 0.00 0.00 100 1020.7
20260902005034 59 0 0.0 0.0 0.00 0.00 0.00 100 1020.9
20260902004554 59 0 0.0 0.0 0.00 0.00 0.00 100 1020.9
20260902004038 59 0 0.0 0.0 0.00 0.00 0.00 100 1020.9
20260902003535 59 0 0.0 0.0 0.00 0.00 0.00 100 1020.8
20260902003052 59 0 0.0 0.0 0.00 0.00 0.00 100 1020.9
20260902002531 59 0 0.0 0.0 0.00 0.00 0.00 100 1020.9
20260902002033 59 0 0.0 0.0 0.00 0.00 0.00 100 1020.8
20260902001554 59 0 0.0 0.0 0.00 0.00 0.00 100 1020.8
20260902001031 59 0 0.0 0.0 0.00 0.00 0.00 100 1020.9
20260902000531 59 0 0.0 0.0 0.00 0.00 0.00 100 1021.0
20260902000045 59 0 0.0 0.0 0.00 0.00 0.00 100 1021.1
20260901235534 59 0 0.0 0.0 0.00 0.00 0.00 100 1021.3
20260901235033 59 0 0.0 0.0 0.00 0.00 0.00 100 1021.0
20260901234604 59 0 0.0 0.0 0.00 0.00 0.00 100 1021.1
20260901234032 59 0 0.0 0.0 0.00 0.00 0.00 100 1021.1
20260901233531 59 0 0.0 0.0 0.00 0.00 0.00 100 1021.0
20260901233058 59 0 0.0 0.0 0.00 0.00 0.00 100 1021.1
20260901232532 60 0 0.0 0.0 0.00 0.00 0.00 100 1021.0
20260901232032 60 0 0.0 0.0 0.00 0.00 0.00 100 1020.9
20260901231549 60 0 0.0 0.0 0.00 0.00 0.00 100 1021.0
20260901231032 60 0 0.0 0.0 0.00 0.00 0.00 100 1021.1
20260901230533 60 0 0.0 0.0 0.00 0.00 0.00 100 1021.2
20260901230054 60 0 0.0 0.0 0.00 0.00 0.00 100 1021.1
20260901225532 60 0 0.0 0.0 0.00 0.00 0.00 100 1021.1
20260901225034 60 0 0.0 0.0 0.00 0.00 0.00 100 1021.1
20260901224600 60 0 0.0 0.0 0.00 0.00 0.00 100 1021.2
20260901224035 60 0 0.0 0.0 0.00 0.00 0.00 100 1021.2
20260901223531 60 0 0.0 0.0 0.00 0.00 0.00 100 1021.3
20260901223048 60 0 0.0 0.0 0.00 0.00 0.00 100 1021.3
20260901222531 60 0 0.0 0.0 0.00 0.00 0.00 100 1021.3
20260901222033 60 0 0.0 0.0 0.00 0.00 0.00 100 1021.1
20260901221554 60 0 0.0 0.0 0.00 0.00 0.00 100 1021.2
20260901221032 60 0 0.0 3.0 0.00 0.00 0.00 100 1021.2
20260901220531 60 0 0.0 3.0 0.00 0.00 0.00 100 1021.2
20260901220114 60 0 0.0 3.0 0.00 0.00 0.00 100 1021.3
20260901215531 60 0 0.0 2.0 0.00 0.00 0.00 100 1021.4
20260901215034 60 0 0.0 7.0 0.00 0.00 0.00 100 1021.4
20260901214551 60 0 0.0 7.0 0.00 0.00 0.00 100 1021.5
20260901214032 60 232 0.0 4.0 0.00 0.00 0.00 100 1021.5
20260901213536 60 0 0.0 6.0 0.00 0.00 0.00 100 1021.4
20260901213058 60 0 1.0 6.0 0.00 0.00 0.00 100 1021.5
20260901212535 60 234 0.0 3.0 0.00 0.00 0.00 100 1021.5
20260901212036 60 186 0.0 3.0 0.00 0.00 0.00 100 1021.4
20260901211544 60 0 0.0 4.0 0.00 0.00 0.00 100 1021.4
20260901211031 60 199 0.0 4.0 0.00 0.00 0.00 100 1021.3
20260901210534 60 0 0.0 3.0 0.00 0.00 0.00 100 1021.4
20260901210053 60 0 0.0 2.0 0.00 0.00 0.00 100 1021.3
20260901205533 60 0 0.0 2.0 0.00 0.00 0.00 100 1021.4